Location: Nachod
(50.4170°N, 16.1670°E)
Time: 00:37:12
(UTC+01:00)

BEESAT - Visible Passes

Search period start: 02 March 2021 00:00
Search period end: 12 March 2021 00:00
Orbit: 699 x 709 km, 98.6° (Epoch: 01 March)

Date Brightness Start Highest point End Pass type
(mag) Time Alt. Az. Time Alt. Az. Time Alt. Az.
02 Mar ? 04:57:39 10° SE 05:01:57 35° ENE 05:06:15 10° N visible
02 Mar ? 18:29:47 10° NNE 18:34:16 40° E 18:38:45 10° SSE visible
02 Mar ? 20:07:44 10° N 20:11:55 31° WNW 20:16:04 10° SW visible
03 Mar ? 04:05:35 10° E 04:08:04 14° NE 04:10:34 10° NNE visible
03 Mar ? 05:40:20 10° SSE 05:45:04 80° ENE 05:49:51 10° NNW visible
03 Mar ? 19:12:54 10° NNE 19:17:41 86° WNW 19:22:27 10° SSW visible
03 Mar ? 20:52:01 10° NNW 20:54:45 15° NW 20:57:27 10° W visible
04 Mar ? 04:46:50 10° ESE 04:50:53 29° ENE 04:54:57 10° N visible
04 Mar ? 18:18:46 10° NNE 18:23:03 32° E 18:27:18 10° SSE visible
04 Mar ? 19:56:27 10° N 20:00:50 38° WNW 20:05:13 10° SW visible
05 Mar ? 03:55:25 10° ENE 03:57:06 12° NE 03:58:46 10° NNE visible
05 Mar ? 05:29:16 10° SSE 05:33:57 64° ENE 05:38:40 10° N visible
05 Mar ? 19:01:44 10° NNE 19:06:32 76° ESE 19:11:17 10° S visible
05 Mar ? 20:40:30 10° NNW 20:43:44 18° WNW 20:46:58 10° W visible
06 Mar ? 04:36:05 10° ESE 04:39:50 24° ENE 04:43:36 10° N visible
06 Mar ? 19:45:11 10° N 19:49:45 47° WNW 19:54:18 10° SW visible
07 Mar ? 05:18:14 10° SE 05:22:50 51° ENE 05:27:26 10° N visible
07 Mar ? 18:50:37 10° NNE 18:55:21 60° ESE 19:00:04 10° S visible
07 Mar ? 20:29:04 10° N 20:32:43 22° WNW 20:36:21 10° WSW visible
08 Mar ? 04:25:25 10° ESE 04:28:48 20° ENE 04:32:12 10° NNE visible
08 Mar ? 19:33:57 10° N 19:38:38 59° WNW 19:43:18 10° SSW visible
08 Mar ? 21:14:12 10° NW 21:15:26 11° NW 21:16:39 10° WNW visible
09 Mar ? 05:07:17 10° SE 05:11:44 41° ENE 05:16:11 10° N visible
09 Mar ? 18:39:31 10° NNE 18:44:09 47° E 18:48:45 10° S visible
09 Mar ? 20:17:42 10° N 20:21:40 27° WNW 20:25:38 10° WSW visible
10 Mar ? 04:14:52 10° E 04:17:47 16° NE 04:20:43 10° NNE visible
10 Mar ? 19:22:44 10° NNE 19:27:31 74° WNW 19:32:16 10° SSW visible
10 Mar ? 21:02:13 10° NNW 21:04:27 13° NW 21:06:42 10° W visible
11 Mar ? 04:56:25 10° SE 05:00:38 33° ENE 05:04:54 10° N visible
11 Mar ? 18:28:29 10° NNE 18:32:56 38° E 18:37:22 10° SSE visible
11 Mar ? 20:06:22 10° N 20:10:37 33° WNW 20:14:51 10° SW visible
